FW8680 Weather Reports


time (UTC)temp
C
wind
direction
speed
KPH
gust
KPH
rain 1hr
cm
rain 24hr
cm
rain mn
cm
humidity
%
barometer
mb
20260906214551 29 315 14.5 25.7 0.00 0.00 0.00 14 1024.3
20260906213055 28 310 14.5 27.4 0.00 0.00 0.00 16 1024.8
20260906211559 27 163 1.6 11.3 0.00 0.00 0.00 27 1025.0
20260906210058 27 162 6.4 17.7 0.00 0.00 0.00 31 1025.2
20260906204557 27 165 3.2 11.3 0.00 0.00 0.00 30 1025.4
20260906203053 28 159 4.8 17.7 0.00 0.00 0.00 29 1025.5
20260906201552 28 59 8.0 16.1 0.00 0.00 0.00 28 1025.7
20260906200055 26 165 3.2 11.3 0.00 0.00 0.00 30 1025.9
20260906194557 26 278 4.8 19.3 0.00 0.00 0.00 32 1025.9
20260906193055 27 130 3.2 20.9 0.00 0.00 0.00 28 1026.0
20260906191550 28 145 4.8 22.5 0.00 0.00 0.00 30 1026.4
20260906190057 28 184 6.4 19.3 0.00 0.00 0.00 29 1026.7
20260906184557 28 302 6.4 20.9 0.00 0.00 0.00 29 1026.8
20260906183054 26 213 3.2 11.3 0.00 0.00 0.00 30 1027.1
20260906181555 28 106 3.2 16.1 0.00 0.00 0.00 28 1027.2
20260906180056 27 314 4.8 17.7 0.00 0.00 0.00 28 1027.5
20260906174554 27 152 1.6 14.5 0.00 0.00 0.00 29 1027.6
20260906173102 27 187 4.8 14.5 0.00 0.00 0.00 29 1027.7
20260906171550 25 284 6.4 17.7 0.00 0.00 0.00 31 1027.9
20260906170056 26 86 4.8 17.7 0.00 0.00 0.00 30 1027.9
20260906164600 25 252 3.2 11.3 0.00 0.00 0.00 30 1028.0
20260906163052 24 253 1.6 14.5 0.00 0.00 0.00 32 1028.2
20260906161558 25 238 3.2 11.3 0.00 0.00 0.00 30 1028.0
20260906160057 26 329 4.8 14.5 0.00 0.00 0.00 29 1027.9
20260906154557 26 250 6.4 16.1 0.00 0.00 0.00 29 1027.7
20260906153046 24 169 9.7 17.7 0.00 0.00 0.00 31 1027.6
20260906151602 24 201 9.7 17.7 0.00 0.00 0.00 31 1027.6
20260906150056 24 148 8.0 16.1 0.00 0.00 0.00 31 1027.6
20260906144550 23 168 1.6 9.7 0.00 0.00 0.00 32 1027.4
20260906143113 22 142 3.2 12.9 0.00 0.00 0.00 35 1027.7
20260906141555 22 257 9.7 16.1 0.00 0.00 0.00 35 1027.5
20260906140051 21 298 9.7 12.9 0.00 0.00 0.00 36 1027.3
20260906134553 21 290 3.2 11.3 0.00 0.00 0.00 35 1027.2
20260906133104 21 304 3.2 12.9 0.00 0.00 0.00 36 1027.1
20260906131559 20 303 12.9 20.9 0.00 0.00 0.00 37 1027.0
20260906130052 19 243 9.7 20.9 0.00 0.00 0.00 39 1026.7
20260906124552 18 279 4.8 12.9 0.00 0.00 0.00 39 1026.7
20260906123056 17 268 3.2 6.4 0.00 0.00 0.00 41 1026.8
20260906121552 18 259 3.2 11.3 0.00 0.00 0.00 40 1026.8
20260906120049 18 0 0.0 19.3 0.00 0.00 0.00 39 1026.8
20260906114549 18 244 8.0 17.7 0.00 0.00 0.00 38 1026.7
20260906113054 18 290 8.0 16.1 0.00 0.00 0.00 38 1026.8
20260906111550 18 256 6.4 16.1 0.00 0.00 0.00 38 1026.7
20260906110047 19 274 6.4 14.5 0.00 0.00 0.00 37 1026.6
20260906104557 19 309 9.7 17.7 0.00 0.00 0.00 36 1026.6
20260906103055 20 240 12.9 22.5 0.00 0.00 0.00 35 1026.5
20260906101553 19 250 14.5 24.1 0.00 0.00 0.00 35 1026.5
20260906100046 20 252 14.5 25.7 0.00 0.00 0.00 34 1026.6
20260906094556 20 259 16.1 27.4 0.00 0.00 0.00 33 1026.4
20260906093113 20 273 16.1 29.0 0.00 0.00 0.00 34 1026.4
20260906091550 20 275 17.7 29.0 0.00 0.00 0.00 34 1026.4
20260906090048 20 277 17.7 29.0 0.00 0.00 0.00 35 1026.4
20260906084555 20 290 17.7 25.7 0.00 0.00 0.00 34 1026.3
20260906083053 20 248 11.3 20.9 0.00 0.00 0.00 34 1026.4
20260906081554 21 288 9.7 24.1 0.00 0.00 0.00 30 1026.4
20260906080100 22 223 17.7 29.0 0.00 0.00 0.00 27 1026.1
20260906074555 22 251 20.9 33.8 0.00 0.00 0.00 27 1026.2
20260906073057 22 213 12.9 25.7 0.00 0.00 0.00 26 1026.3
20260906071559 22 321 17.7 35.4 0.00 0.00 0.00 26 1026.1
20260906070046 22 210 16.1 33.8 0.00 0.00 0.00 30 1026.3
20260906064555 22 232 9.7 27.4 0.00 0.00 0.00 31 1026.4
20260906063056 21 279 3.2 17.7 0.00 0.00 0.00 33 1026.3
20260906061555 20 221 8.0 16.1 0.00 0.00 0.00 37 1026.6
20260906060053 18 202 9.7 14.5 0.00 0.00 0.00 44 1026.7
20260906054600 18 196 9.7 17.7 0.00 0.00 0.00 44 1026.7
20260906053056 18 240 3.2 11.3 0.00 0.00 0.00 46 1026.8
20260906051555 18 0 0.0 1.6 0.00 0.00 0.00 44 1026.9
20260906050131 18 337 1.6 4.8 0.00 0.00 0.00 44 1026.8
20260906044554 21 327 3.2 8.0 0.00 0.00 0.00 39 1026.7
20260906043106 20 195 3.2 4.8 0.00 0.00 0.00 40 1026.7
20260906041553 21 291 4.8 14.5 0.00 0.00 0.00 39 1026.6
20260906040101 21 291 6.4 14.5 0.00 0.00 0.00 38 1026.6
20260906034550 21 281 9.7 14.5 0.00 0.00 0.00 38 1026.8
20260906033056 20 244 4.8 8.0 0.00 0.00 0.00 41 1026.9
20260906031546 21 247 3.2 8.0 0.00 0.00 0.00 39 1026.8
20260906030114 21 234 4.8 9.7 0.00 0.00 0.00 40 1026.7
20260906024555 21 265 3.2 6.4 0.00 0.00 0.00 38 1026.4
20260906023047 21 250 4.8 8.0 0.00 0.00 0.00 38 1026.3
20260906021605 21 236 4.8 9.7 0.00 0.00 0.00 39 1026.4
20260906020100 21 281 6.4 12.9 0.00 0.00 0.00 39 1026.0
20260906014553 21 287 6.4 11.3 0.00 0.00 0.00 40 1025.9
20260906013057 21 327 0.0 3.2 0.00 0.00 0.00 39 1025.6
20260906011554 22 345 1.6 3.2 0.00 0.00 0.00 38 1025.7
20260906010056 23 284 0.0 4.8 0.00 0.00 0.00 35 1025.5
20260906004600 25 0 3.2 8.0 0.00 0.00 0.00 33 1025.5
20260906003107 27 277 1.6 9.7 0.00 0.00 0.00 30 1025.1
20260906001554 27 284 1.6 6.4 0.00 0.00 0.00 31 1025.0
20260906000056 27 207 0.0 11.3 0.00 0.00 0.00 28 1024.9
20260905234556 26 146 8.0 14.5 0.00 0.00 0.00 30 1025.0
20260905233056 27 155 4.8 9.7 0.00 0.00 0.00 29 1025.1
20260905231553 26 248 12.9 20.9 0.00 0.00 0.00 27 1025.0
20260905230058 25 218 12.9 27.4 0.00 0.00 0.00 31 1025.0
20260905224556 25 196 20.9 32.2 0.00 0.00 0.00 35 1025.2
20260905223054 25 216 20.9 33.8 0.00 0.00 0.00 35 1025.1
20260905221602 25 143 20.9 33.8 0.00 0.00 0.00 37 1025.1
20260905220056 25 151 12.9 27.4 0.00 0.00 0.00 35 1025.3